tititudorancea.com
Station Historical Data
Daily Summary for March 17, 2019 Units:  Metric    English   Both
« Previous Day
Next Day »
Daily Weekly Monthly Yearly Custom
  High: Low: Average:
Temperature: -17.8 °C 10.5 °C 21.2 °C
Dew Point: -17.8 °C 7.2 °C 10.1 °C
Humidity: Humidity % 24 % 54 %
Wind Speed: 0 km/h 0 km/h 7.1 km/h
Wind Gust: 0 km/h - -
Wind:- - SW
Pressure: 0 hPa 1012.8 hPa -
Precipitation: 0 mm    
Historical Graphs
 
 
Ararat weather Find more about Weather in Ararat, AU


 



 


Tabular Data for March 17, 2019
Time Temperature Dew Point Pressure Wind Wind Speed Wind Gust Humidity Rainfall Rate (Hourly)
-17.8 °C -17.8 °C 0 hPa Calm     Humidity % 0 mm
00:04 17.5 °C 10.1 °C 1015.8 hPa North 5.6 km/h 4 km/h 62 % 0 mm
00:09 17.4 °C 10.3 °C 1015.8 hPa NNW 5.6 km/h 4 km/h 63 % 0 mm
00:14 17.4 °C 10.1 °C 1015.8 hPa NNW 1.9 km/h 1.9 km/h 62 % 0 mm
00:19 17.4 °C 10.1 °C 1015.8 hPa NNW 5.6 km/h 2.6 km/h 62 % 0 mm
00:24 17.4 °C 10.1 °C 1015.8 hPa NNW 5.6 km/h 1.6 km/h 62 % 0 mm
00:29 17.5 °C 10.1 °C 1015.8 hPa North 1.9 km/h 1.3 km/h 62 % 0 mm
00:34 17.6 °C 10.2 °C 1015.8 hPa North 3.7 km/h 1.8 km/h 62 % 0 mm
00:39 17.5 °C 10.1 °C 1015.8 hPa Calm     62 % 0 mm
00:44 17.4 °C 10.1 °C 1015.8 hPa Calm     62 % 0 mm
00:49 17.2 °C 10.1 °C 1015.8 hPa NNW 1.6 km/h   63 % 0 mm
00:54 16.8 °C 10 °C 1015.8 hPa NNW 1.9 km/h 0.6 km/h 64 % 0 mm
00:59 16.6 °C 10 °C 1015.8 hPa NNW 1.9 km/h   65 % 0 mm
01:04 16.6 °C 10 °C 1015.8 hPa NNW 5.6 km/h 3.7 km/h 65 % 0 mm
01:09 16.8 °C 9.9 °C 1015.8 hPa NNW 5.6 km/h 4 km/h 64 % 0 mm
01:14 16.9 °C 9.8 °C 1015.8 hPa NNW 3.7 km/h 1.8 km/h 63 % 0 mm
01:19 17 °C 9.9 °C 1015.8 hPa NNW 3.7 km/h   63 % 0 mm
01:24 16.9 °C 9.8 °C 1015.8 hPa Calm     63 % 0 mm
01:29 16.7 °C 9.9 °C 1015.5 hPa NNW 5.6 km/h 2.3 km/h 64 % 0 mm
01:34 16.4 °C 9.8 °C 1015.5 hPa North 5.6 km/h 2.4 km/h 65 % 0 mm
01:39 16.2 °C 9.8 °C 1015.5 hPa NNW 3.7 km/h 3.5 km/h 66 % 0 mm
01:44 16.2 °C 9.8 °C 1015.5 hPa NNW 5.6 km/h 0.2 km/h 66 % 0 mm
01:49 16.2 °C 9.8 °C 1015.5 hPa Calm     66 % 0 mm
01:54 16.2 °C 9.8 °C 1015.5 hPa Calm     66 % 0 mm
01:59 16.1 °C 9.8 °C 1015.5 hPa Calm     66 % 0 mm
02:04 16 °C 9.7 °C 1015.5 hPa Calm     66 % 0 mm
02:09 15.8 °C 9.7 °C 1015.5 hPa Calm     67 % 0 mm
02:14 15.7 °C 9.6 °C 1015.5 hPa Calm     67 % 0 mm
02:19 15.4 °C 9.6 °C 1015.5 hPa Calm     68 % 0 mm
02:24 15.3 °C 9.6 °C 1015.5 hPa Calm     69 % 0 mm
02:29 15.1 °C 9.4 °C 1015.5 hPa Calm     69 % 0 mm
02:34 14.8 °C 9.4 °C 1015.5 hPa Calm     70 % 0 mm
02:39 14.7 °C 9.3 °C 1015.5 hPa Calm     70 % 0 mm
02:44 14.4 °C 9.2 °C 1015.5 hPa Calm     71 % 0 mm
02:49 14.3 °C 9.1 °C 1015.5 hPa Calm     71 % 0 mm
02:54 14.1 °C 9.1 °C 1015.5 hPa Calm     72 % 0 mm
02:59 13.9 °C 9 °C 1015.5 hPa Calm     72 % 0 mm
03:04 13.8 °C 9 °C 1015.5 hPa Calm     73 % 0 mm
03:09 13.7 °C 8.9 °C 1015.5 hPa Calm     73 % 0 mm
03:14 13.5 °C 8.8 °C 1015.5 hPa Calm     73 % 0 mm
03:19 13.4 °C 8.8 °C 1015.5 hPa Calm     74 % 0 mm
03:24 13.3 °C 8.7 °C 1015.1 hPa Calm     74 % 0 mm
03:29 13.1 °C 8.8 °C 1015.1 hPa Calm     75 % 0 mm
03:34 13 °C 8.7 °C 1015.1 hPa Calm     75 % 0 mm
03:39 12.8 °C 8.7 °C 1015.1 hPa Calm     76 % 0 mm
03:44 12.7 °C 8.6 °C 1015.1 hPa Calm     76 % 0 mm
03:49 12.6 °C 8.7 °C 1015.1 hPa Calm     77 % 0 mm
03:54 12.5 °C 8.6 °C 1015.5 hPa Calm     77 % 0 mm
03:59 12.4 °C 8.4 °C 1015.5 hPa Calm     77 % 0 mm
04:04 12.2 °C 8.5 °C 1015.1 hPa Calm     78 % 0 mm
04:09 12.1 °C 8.5 °C 1015.5 hPa Calm     79 % 0 mm
04:14 11.9 °C 8.4 °C 1015.1 hPa Calm     79 % 0 mm
04:19 11.8 °C 8.5 °C 1015.1 hPa Calm     80 % 0 mm
04:24 11.8 °C 8.6 °C 1015.1 hPa Calm     81 % 0 mm
04:29 11.7 °C 8.6 °C 1015.1 hPa Calm     81 % 0 mm
04:34 11.7 °C 8.5 °C 1015.1 hPa Calm     81 % 0 mm
04:39 11.6 °C 8.4 °C 1015.1 hPa Calm     81 % 0 mm
04:44 11.5 °C 8.3 °C 1015.1 hPa Calm     81 % 0 mm
04:49 11.4 °C 8.2 °C 1015.5 hPa Calm     81 % 0 mm
04:54 11.4 °C 8.4 °C 1015.5 hPa Calm     82 % 0 mm
04:59 11.3 °C 8.3 °C 1015.5 hPa Calm     82 % 0 mm
05:04 11.2 °C 8.3 °C 1015.5 hPa Calm     82 % 0 mm
05:09 11.3 °C 8.5 °C 1015.5 hPa Calm     83 % 0 mm
05:14 11.2 °C 8.4 °C 1015.5 hPa Calm     83 % 0 mm
05:19 11.2 °C 8.4 °C 1015.8 hPa Calm     83 % 0 mm
05:24 11.2 °C 8.6 °C 1015.8 hPa NNW 3.7 km/h 0.5 km/h 84 % 0 mm
05:29 11.3 °C 8.7 °C 1015.8 hPa NNW 5.6 km/h 4.3 km/h 84 % 0 mm
05:34 11.3 °C 8.6 °C 1015.8 hPa Calm     83 % 0 mm
05:39 11.4 °C 8.6 °C 1015.8 hPa Calm     83 % 0 mm
05:44 11.4 °C 8.6 °C 1015.8 hPa NNW 5.6 km/h 3.4 km/h 83 % 0 mm
05:49 11.4 °C 8.6 °C 1015.8 hPa North 1.9 km/h   83 % 0 mm
05:54 11.5 °C 8.9 °C 1015.8 hPa North 5.6 km/h 2.4 km/h 84 % 0 mm
05:59 11.5 °C 8.9 °C 1015.8 hPa Calm     84 % 0 mm
06:04 11.6 °C 8.9 °C 1015.8 hPa Calm     84 % 0 mm
06:09 11.5 °C 8.7 °C 1015.8 hPa Calm     83 % 0 mm
06:14 11.4 °C 8.7 °C 1015.8 hPa North 1.6 km/h 0.5 km/h 83 % 0 mm
06:19 11.4 °C 8.8 °C 1015.8 hPa Calm     84 % 0 mm
06:24 11.4 °C 8.8 °C 1015.8 hPa NNW 3.7 km/h 2.9 km/h 84 % 0 mm
06:29 11.6 °C 8.9 °C 1016.1 hPa NNW 5.6 km/h 1.8 km/h 84 % 0 mm
06:34 11.6 °C 8.9 °C 1016.1 hPa Calm     84 % 0 mm
06:39 11.6 °C 8.8 °C 1016.1 hPa Calm     83 % 0 mm
06:44 11.5 °C 8.7 °C 1016.1 hPa Calm     83 % 0 mm
06:49 11.4 °C 8.6 °C 1016.1 hPa Calm     83 % 0 mm
06:54 11.2 °C 8.4 °C 1016.1 hPa Calm     83 % 0 mm
06:59 11.1 °C 8.3 °C 1016.5 hPa Calm     83 % 0 mm
07:04 11.1 °C 8.3 °C 1016.5 hPa Calm     83 % 0 mm
07:09 10.9 °C 8.3 °C 1016.5 hPa NNW 1.6 km/h   84 % 0 mm
07:14 10.9 °C 8.3 °C 1016.5 hPa Calm     84 % 0 mm
07:19 10.8 °C 8.2 °C 1016.5 hPa Calm     84 % 0 mm
07:24 10.7 °C 8.1 °C 1016.5 hPa Calm     84 % 0 mm
07:29 10.6 °C 8 °C 1016.5 hPa Calm     84 % 0 mm
07:34 10.6 °C 8.1 °C 1016.5 hPa Calm     85 % 0 mm
07:39 10.6 °C 8.1 °C 1016.8 hPa Calm     85 % 0 mm
07:44 10.5 °C 8.1 °C 1016.8 hPa Calm     85 % 0 mm
07:49 10.6 °C 8.3 °C 1016.8 hPa Calm     86 % 0 mm
07:54 10.6 °C 8.4 °C 1016.8 hPa Calm     86 % 0 mm
07:59 10.8 °C 8.7 °C 1017.2 hPa Calm     87 % 0 mm
08:04 11.1 °C 9.1 °C 1017.2 hPa Calm     87 % 0 mm
08:09 11.5 °C 9.4 °C 1017.2 hPa Calm     87 % 0 mm
08:14 11.9 °C 9.6 °C 1017.2 hPa Calm     86 % 0 mm
08:19 12.4 °C 10.1 °C 1017.2 hPa Calm     86 % 0 mm
08:24 12.7 °C 9.9 °C 1017.2 hPa Calm     83 % 0 mm
08:29 13 °C 10 °C 1017.2 hPa Calm     82 % 0 mm
08:34 13.2 °C 10.1 °C 1017.2 hPa Calm     81 % 0 mm
08:39 13.7 °C 10.7 °C 1017.2 hPa Calm     82 % 0 mm
08:44 14.4 °C 11 °C 1017.2 hPa Calm     80 % 0 mm
08:49 15 °C 11.2 °C 1017.2 hPa Calm     78 % 0 mm
08:54 15.8 °C 11.6 °C 1017.2 hPa Calm     76 % 0 mm
08:59 16.6 °C 11.7 °C 1017.2 hPa Calm     73 % 0 mm
09:04 17.4 °C 12.1 °C 1017.2 hPa North 3.2 km/h 2.7 km/h 71 % 0 mm
09:09 18.2 °C 11.7 °C 1017.2 hPa NNW 6.4 km/h 4.2 km/h 66 % 0 mm
09:14 18.8 °C 11.4 °C 1017.2 hPa NNW 8 km/h 6.3 km/h 62 % 0 mm
09:19 19.5 °C 11.5 °C 1017.2 hPa NNW 7.4 km/h 5.8 km/h 60 % 0 mm
09:24 20.1 °C 11.6 °C 1017.2 hPa NNW 3.7 km/h 4.3 km/h 58 % 0 mm
09:29 20.7 °C 11.6 °C 1017.2 hPa North 8 km/h 3.5 km/h 56 % 0 mm
09:34 21.2 °C 11.8 °C 1017.2 hPa NNW 5.6 km/h 1.3 km/h 55 % 0 mm
09:39 21.7 °C 11.7 °C 1017.2 hPa North 5.6 km/h 2.7 km/h 53 % 0 mm
09:44 22.3 °C 12.2 °C 1017.2 hPa NNW 8 km/h 4.3 km/h 53 % 0 mm
09:49 22.9 °C 12.2 °C 1017.2 hPa NNW 11.1 km/h 4.2 km/h 51 % 0 mm
09:54 23.3 °C 12.3 °C 1016.8 hPa NNW 16.7 km/h 8 km/h 50 % 0 mm
09:59 23.7 °C 12.4 °C 1016.8 hPa North 16.7 km/h 6.3 km/h 49 % 0 mm
10:04 24.1 °C 12.1 °C 1016.8 hPa North 14.8 km/h 13.7 km/h 47 % 0 mm
10:09 24.1 °C 12.4 °C 1016.8 hPa North 13 km/h 6.9 km/h 48 % 0 mm
10:14 24.2 °C 12.2 °C 1016.8 hPa North 18.5 km/h 12.4 km/h 47 % 0 mm
10:19 24.2 °C 12.2 °C 1016.8 hPa NNW 18.5 km/h 10.6 km/h 47 % 0 mm
10:24 24.3 °C 12.2 °C 1016.8 hPa North 20.4 km/h 14.3 km/h 47 % 0 mm
10:29 24.3 °C 12.2 °C 1016.8 hPa North 14.8 km/h 8.7 km/h 47 % 0 mm
10:34 24.6 °C 12.2 °C 1016.8 hPa North 17.7 km/h 12.2 km/h 46 % 0 mm
10:39 24.7 °C 12.6 °C 1016.8 hPa North 16.7 km/h 10.6 km/h 47 % 0 mm
10:44 24.7 °C 12.3 °C 1016.8 hPa North 14.8 km/h 12.4 km/h 46 % 0 mm
10:49 24.8 °C 12.4 °C 1016.8 hPa NW 14.8 km/h 14.2 km/h 46 % 0 mm
10:54 25 °C 12.6 °C 1016.8 hPa NNW 16.7 km/h 9.7 km/h 46 % 0 mm
10:59 25 °C 12.2 °C 1016.8 hPa NNW 14.8 km/h 7.4 km/h 45 % 0 mm
11:04 25.1 °C 12.3 °C 1016.8 hPa North 16.7 km/h 8.2 km/h 45 % 0 mm
11:09 25.3 °C 12.5 °C 1016.5 hPa North 14.8 km/h 9.7 km/h 45 % 0 mm
11:14 25.5 °C 12.7 °C 1016.5 hPa North 12.9 km/h 10.1 km/h 45 % 0 mm
11:19 25.6 °C 12.4 °C 1016.5 hPa North 18.5 km/h 8 km/h 44 % 0 mm
11:24 25.7 °C 12.6 °C 1016.5 hPa North 11.1 km/h 9.7 km/h 44 % 0 mm
11:29 25.8 °C 12.3 °C 1016.5 hPa NNW 13 km/h 7.7 km/h 43 % 0 mm
11:34 25.8 °C 12.3 °C 1016.5 hPa North 18.5 km/h 7.2 km/h 43 % 0 mm
11:39 26.1 °C 12.5 °C 1016.5 hPa NNE 13 km/h 6.1 km/h 43 % 0 mm
11:44 26.2 °C 12.2 °C 1016.1 hPa NNW 16.7 km/h 4.7 km/h 42 % 0 mm
11:49 26.6 °C 12.3 °C 1016.1 hPa North 11.1 km/h 8.4 km/h 41 % 0 mm
11:54 26.6 °C 12.2 °C 1016.1 hPa North 11.1 km/h 9.8 km/h 41 % 0 mm
11:59 26.7 °C 12.3 °C 1016.1 hPa North 14.8 km/h 10.6 km/h 41 % 0 mm
12:04 26.7 °C 12 °C 1015.8 hPa North 7.4 km/h 5.1 km/h 40 % 0 mm
12:09 27 °C 11.9 °C 1015.8 hPa NNW 14.8 km/h 8.7 km/h 39 % 0 mm
12:14 27.1 °C 12.3 °C 1015.8 hPa NNW 14.8 km/h 9 km/h 40 % 0 mm
12:19 27.3 °C 11.7 °C 1015.8 hPa NNW 8 km/h 6.4 km/h 38 % 0 mm
12:24 27.3 °C 11.8 °C 1015.8 hPa North 11.1 km/h 9 km/h 38 % 0 mm
12:29 27.4 °C 11.9 °C 1015.5 hPa NNE 18.5 km/h 13.8 km/h 38 % 0 mm
12:34 27.5 °C 11.5 °C 1015.5 hPa NNE 13 km/h 4.5 km/h 37 % 0 mm
12:39 27.6 °C 11.2 °C 1015.5 hPa North 11.1 km/h 6.8 km/h 36 % 0 mm
12:44 27.9 °C 11.4 °C 1015.5 hPa North 8 km/h 6.6 km/h 36 % 0 mm
12:49 28.2 °C 11.7 °C 1015.5 hPa NNE 14.8 km/h 5.3 km/h 36 % 0 mm
12:54 28.4 °C 11.9 °C 1015.1 hPa NNE 9.7 km/h 3.7 km/h 36 % 0 mm
12:59 28.7 °C 11.3 °C 1015.1 hPa NNE 7.4 km/h 2.6 km/h 34 % 0 mm
13:04 28.9 °C 11.1 °C 1015.1 hPa NNE 9.3 km/h 6 km/h 33 % 0 mm
13:09 28.9 °C 10.6 °C 1015.1 hPa NNE 9.7 km/h 8.2 km/h 32 % 0 mm
13:14 28.7 °C 10.4 °C 1015.1 hPa NNE 11.1 km/h 8.7 km/h 32 % 0 mm
13:19 28.9 °C 10.1 °C 1015.1 hPa NNE 9.3 km/h 6 km/h 31 % 0 mm
13:24 29.3 °C 10.4 °C 1014.8 hPa NE 11.1 km/h 6.3 km/h 31 % 0 mm
13:29 29.2 °C 10.3 °C 1014.8 hPa NE 5.6 km/h 0.8 km/h 31 % 0 mm
13:34 29.3 °C 10.4 °C 1014.8 hPa NE 13 km/h 5.8 km/h 31 % 0 mm
13:39 29.6 °C 10.6 °C 1014.8 hPa NE 1.9 km/h 0.8 km/h 31 % 0 mm
13:44 29.9 °C 10.5 °C 1014.4 hPa NNE 11.1 km/h 9.7 km/h 30 % 0 mm
13:49 29.7 °C 10.7 °C 1014.4 hPa NNE 5.6 km/h 3.7 km/h 31 % 0 mm
13:54 29.8 °C 10.9 °C 1014.4 hPa NNE 9.7 km/h 5 km/h 31 % 0 mm
13:59 29.6 °C 10.7 °C 1014.4 hPa NNE 4.8 km/h 2.6 km/h 31 % 0 mm
14:04 29.9 °C 11 °C 1014.4 hPa NNE 7.4 km/h 5.3 km/h 31 % 0 mm
14:09 30.1 °C 10.6 °C 1014.4 hPa NNE 11.1 km/h 4.8 km/h 30 % 0 mm
14:10 30.1 °C 10.6 °C 1014.4 hPa NNE 7.4 km/h 3.1 km/h 30 % 0 mm
14:19 30.2 °C 10.2 °C 1014.4 hPa WNW 7.4 km/h 6.6 km/h 29 % 0 mm
14:24 29.9 °C 9.9 °C 1014.1 hPa WNW 11.1 km/h 6.8 km/h 29 % 0 mm
14:29 29.8 °C 9.9 °C 1014.1 hPa WNW 7.4 km/h 4.8 km/h 29 % 0 mm
14:34 30.2 °C 9.7 °C 1014.1 hPa WNW 9.7 km/h 4.7 km/h 28 % 0 mm
14:39 30.2 °C 9.7 °C 1014.1 hPa WNW 11.1 km/h 7.1 km/h 28 % 0 mm
14:44 30.2 °C 9.7 °C 1014.1 hPa WNW 14.8 km/h 9 km/h 28 % 0 mm
14:49 30.3 °C 9.7 °C 1014.1 hPa WNW 7.4 km/h 1.8 km/h 28 % 0 mm
14:54 30.3 °C 9.2 °C 1013.8 hPa WNW 14.5 km/h 6.3 km/h 27 % 0 mm
14:59 29.9 °C 9.4 °C 1013.8 hPa West 6.4 km/h 6.6 km/h 28 % 0 mm
15:04 29.7 °C 9.3 °C 1013.8 hPa WNW 11.1 km/h 6.4 km/h 28 % 0 mm
15:09 29.2 °C 9.3 °C 1013.8 hPa West 5.6 km/h 5.1 km/h 29 % 0 mm
15:14 29 °C 9.2 °C 1013.4 hPa West 9.7 km/h 5.5 km/h 29 % 0 mm
15:19 29.2 °C 9.3 °C 1013.4 hPa West 9.3 km/h 7.6 km/h 29 % 0 mm
15:24 29.8 °C 9.3 °C 1013.4 hPa West 5.6 km/h 3.4 km/h 28 % 0 mm
15:29 30.2 °C 9.7 °C 1013.4 hPa West 4.8 km/h 3.2 km/h 28 % 0 mm
15:34 30.2 °C 9.2 °C 1013.4 hPa West 5.6 km/h 3.9 km/h 27 % 0 mm
15:39 29.7 °C 9.2 °C 1013.4 hPa West 13 km/h 7.2 km/h 28 % 0 mm
15:44 29.4 °C 9 °C 1013.4 hPa West 9.7 km/h 5.5 km/h 28 % 0 mm
15:49 29.3 °C 8.3 °C 1013.4 hPa North 9.3 km/h 6.1 km/h 27 % 0 mm
15:54 29.2 °C 8.3 °C 1013.4 hPa West 9.7 km/h 6.3 km/h 27 % 0 mm
15:59 29.2 °C 8.2 °C 1013.1 hPa West 4.8 km/h 3.4 km/h 27 % 0 mm
16:04 29.4 °C 8.4 °C 1013.1 hPa North 3.2 km/h 1.4 km/h 27 % 0 mm
16:09 29.9 °C 8.9 °C 1013.1 hPa WSW 16.7 km/h 14.3 km/h 27 % 0 mm
16:14 29.9 °C 8.9 °C 1013.1 hPa SW 14.8 km/h 14.6 km/h 27 % 0 mm
16:19 29.8 °C 8.8 °C 1013.1 hPa SW 13 km/h 9.8 km/h 27 % 0 mm
16:24 29.9 °C 8.9 °C 1013.1 hPa SW 24.1 km/h 19.3 km/h 27 % 0 mm
16:29 29.9 °C 8.9 °C 1013.1 hPa SW 13 km/h 14 km/h 27 % 0 mm
16:34 30 °C 8.4 °C 1013.1 hPa WSW 20.4 km/h 10.6 km/h 26 % 0 mm
16:39 30.1 °C 9 °C 1013.1 hPa SSW 20.4 km/h 11.4 km/h 27 % 0 mm
16:44 30.2 °C 8.6 °C 1013.1 hPa SW 14.8 km/h 12.1 km/h 26 % 0 mm
16:49 30.4 °C 8.8 °C 1013.1 hPa WSW 18.5 km/h 13.7 km/h 26 % 0 mm
16:54 30.2 °C 8.6 °C 1012.8 hPa SW 13 km/h 7.2 km/h 26 % 0 mm
16:59 30.3 °C 8.7 °C 1012.8 hPa WSW 13 km/h 8 km/h 26 % 0 mm
17:04 30.4 °C 8.2 °C 1012.8 hPa SW 5.6 km/h 6.4 km/h 25 % 0 mm
17:09 30.4 °C 8.2 °C 1012.8 hPa SW 5.6 km/h 3.9 km/h 25 % 0 mm
17:14 30.6 °C 8.3 °C 1012.8 hPa SW 8 km/h 7.4 km/h 25 % 0 mm
17:19 30.5 °C 8.2 °C 1012.8 hPa SW 9.7 km/h 7.6 km/h 25 % 0 mm
17:24 30.2 °C 8 °C 1012.8 hPa SW 9.7 km/h 8 km/h 25 % 0 mm
17:29 30.4 °C 8.2 °C 1012.8 hPa SW 5.6 km/h 5.3 km/h 25 % 0 mm
17:34 30.7 °C 8.4 °C 1012.8 hPa SW 6.4 km/h 6.3 km/h 25 % 0 mm
17:39 30.4 °C 8.2 °C 1012.8 hPa South 9.3 km/h 8.9 km/h 25 % 0 mm
17:44 30.2 °C 7.9 °C 1012.8 hPa South 11.1 km/h 5.8 km/h 25 % 0 mm
17:49 30.2 °C 8 °C 1012.8 hPa South 9.3 km/h 6.6 km/h 25 % 0 mm
17:54 30.3 °C 7.5 °C 1012.8 hPa South 9.3 km/h 4 km/h 24 % 0 mm
17:59 30.4 °C 7.6 °C 1012.8 hPa South 16.1 km/h 13.8 km/h 24 % 0 mm
18:04 30 °C 7.2 °C 1012.8 hPa South 11.1 km/h 10.5 km/h 24 % 0 mm
18:09 29.9 °C 7.8 °C 1012.8 hPa South 5.6 km/h 4.5 km/h 25 % 0 mm
18:14 29.8 °C 7.6 °C 1012.8 hPa South 5.6 km/h 5 km/h 25 % 0 mm
18:19 29.6 °C 7.5 °C 1012.8 hPa South 9.7 km/h 3.2 km/h 25 % 0 mm
18:24 29.6 °C 8 °C 1012.8 hPa South 13 km/h 5.1 km/h 26 % 0 mm
18:29 29.5 °C 8 °C 1013.1 hPa South 9.3 km/h 4.8 km/h 26 % 0 mm
18:34 29.4 °C 7.9 °C 1013.1 hPa South 9.3 km/h 5.6 km/h 26 % 0 mm
18:39 29.3 °C 7.8 °C 1013.1 hPa South 5.6 km/h 5.3 km/h 26 % 0 mm
18:44 29.2 °C 8.3 °C 1013.1 hPa South 9.3 km/h 4.3 km/h 27 % 0 mm
18:49 29.1 °C 8.2 °C 1013.1 hPa South 9.7 km/h 3.7 km/h 27 % 0 mm
18:54 28.8 °C 8.4 °C 1013.1 hPa South 5.6 km/h 3.7 km/h 28 % 0 mm
18:59 28.5 °C 8.2 °C 1013.1 hPa South 7.4 km/h 4.2 km/h 28 % 0 mm
19:04 28.2 °C 8.5 °C 1013.1 hPa South 3.7 km/h 1.9 km/h 29 % 0 mm
19:09 28 °C 8.3 °C 1013.1 hPa South 5.6 km/h 2.6 km/h 29 % 0 mm
19:14 27.8 °C 8.6 °C 1013.1 hPa South 5.6 km/h 2.6 km/h 30 % 0 mm
19:19 27.6 °C 8.4 °C 1013.1 hPa South 5.6 km/h 2.7 km/h 30 % 0 mm
19:24 27.4 °C 8.3 °C 1013.1 hPa South 5.6 km/h 3.5 km/h 30 % 0 mm
19:29 27.2 °C 8.6 °C 1013.4 hPa South 5.6 km/h 4.2 km/h 31 % 0 mm
19:34 27 °C 8.4 °C 1013.4 hPa South 5.6 km/h 3.2 km/h 31 % 0 mm
19:39 26.7 °C 8.7 °C 1013.4 hPa South 5.6 km/h 3.7 km/h 32 % 0 mm
19:44 26.5 °C 8.4 °C 1013.4 hPa South 5.6 km/h 1 km/h 32 % 0 mm
19:49 26.3 °C 8.7 °C 1013.4 hPa South 5.6 km/h 1.8 km/h 33 % 0 mm
19:54 26 °C 8.9 °C 1013.4 hPa South 5.6 km/h 2.9 km/h 34 % 0 mm
19:59 25.7 °C 8.7 °C 1013.8 hPa South 8 km/h 6.1 km/h 34 % 0 mm
20:04 25.5 °C 9.7 °C 1013.8 hPa South 13 km/h 6.8 km/h 37 % 0 mm
20:09 25.3 °C 10.4 °C 1013.8 hPa South 16.7 km/h 13.5 km/h 39 % 0 mm
20:14 25.2 °C 10.7 °C 1014.1 hPa South 13 km/h 9.8 km/h 40 % 0 mm
20:19 25.1 °C 10.9 °C 1014.1 hPa SSE 7.4 km/h 6.9 km/h 41 % 0 mm
20:24 24.9 °C 10.7 °C 1014.1 hPa South 13 km/h 13.4 km/h 41 % 0 mm
20:29 24.8 °C 10.6 °C 1014.4 hPa South 18.5 km/h 10 km/h 41 % 0 mm
20:34 24.7 °C 10.6 °C 1014.4 hPa South 16.7 km/h 9.8 km/h 41 % 0 mm
20:39 24.6 °C 10.8 °C 1014.4 hPa South 13 km/h 8 km/h 42 % 0 mm
20:44 24.4 °C 11 °C 1014.4 hPa South 11.1 km/h 7.7 km/h 43 % 0 mm
20:49 24.2 °C 11.5 °C 1014.4 hPa South 13 km/h 5.6 km/h 45 % 0 mm
20:54 24 °C 12 °C 1014.4 hPa South 11.1 km/h 6.6 km/h 47 % 0 mm
20:59 23.8 °C 12.1 °C 1014.4 hPa South 9.3 km/h 4.8 km/h 48 % 0 mm
21:04 23.6 °C 12.3 °C 1014.8 hPa North 7.4 km/h 5.6 km/h 49 % 0 mm
21:09 23.4 °C 12.4 °C 1014.8 hPa South 11.3 km/h 7.6 km/h 50 % 0 mm
21:14 23.2 °C 12.5 °C 1014.8 hPa South 9.3 km/h 6.8 km/h 51 % 0 mm
21:19 23.1 °C 13 °C 1014.8 hPa South 13 km/h 9.8 km/h 53 % 0 mm
21:24 23 °C 12.9 °C 1014.8 hPa South 14.8 km/h 8.4 km/h 53 % 0 mm
21:25 22.9 °C 12.8 °C 1014.8 hPa South 14.8 km/h 8 km/h 53 % 0 mm
21:39 22.5 °C 13.3 °C 1014.8 hPa South 14.8 km/h 11.6 km/h 56 % 0 mm
21:44 22.4 °C 13.4 °C 1015.1 hPa South 16.7 km/h 9.3 km/h 57 % 0 mm
21:49 22.2 °C 13.3 °C 1015.1 hPa South 11.1 km/h 6.9 km/h 57 % 0 mm
21:54 22.1 °C 13.4 °C 1015.1 hPa South 13 km/h 8.2 km/h 58 % 0 mm
21:59 21.9 °C 13.5 °C 1015.1 hPa South 9.7 km/h 7.7 km/h 59 % 0 mm
22:04 21.7 °C 13.6 °C 1015.1 hPa South 12.9 km/h 6.4 km/h 60 % 0 mm
22:09 21.5 °C 13.7 °C 1015.1 hPa South 11.1 km/h 6.6 km/h 61 % 0 mm
22:14 21.3 °C 13.4 °C 1015.1 hPa South 9.7 km/h 7.2 km/h 61 % 0 mm
22:19 21.1 °C 13.7 °C 1015.1 hPa South 14.8 km/h 7.9 km/h 63 % 0 mm
22:24 20.9 °C 13.8 °C 1015.5 hPa North 11.1 km/h 7.6 km/h 64 % 0 mm
22:29 20.7 °C 13.8 °C 1015.5 hPa South 11.3 km/h 5.6 km/h 65 % 0 mm
22:34 20.4 °C 13.9 °C 1015.5 hPa South 8 km/h 6.9 km/h 66 % 0 mm
22:39 20.2 °C 13.9 °C 1015.5 hPa South 11.1 km/h 7.7 km/h 67 % 0 mm
22:44 20.1 °C 13.9 °C 1015.5 hPa South 7.4 km/h 6.1 km/h 68 % 0 mm
22:49 19.9 °C 13.8 °C 1015.5 hPa South 7.4 km/h 6.1 km/h 68 % 0 mm
22:54 19.9 °C 14.1 °C 1015.5 hPa South 11.1 km/h 6.8 km/h 69 % 0 mm
22:59 19.9 °C 14.1 °C 1015.5 hPa South 11.1 km/h 6.9 km/h 69 % 0 mm
23:04 19.9 °C 14.1 °C 1015.5 hPa South 13 km/h 10.6 km/h 69 % 0 mm
23:09 19.8 °C 14 °C 1015.5 hPa South 13 km/h 9 km/h 69 % 0 mm
23:14 19.7 °C 14.1 °C 1015.5 hPa North 14.5 km/h 6.4 km/h 70 % 0 mm
23:19 19.5 °C 13.9 °C 1015.5 hPa South 13 km/h 8 km/h 70 % 0 mm
23:24 19.4 °C 13.8 °C 1015.5 hPa North 9.7 km/h 8.2 km/h 70 % 0 mm
23:29 19.2 °C 13.8 °C 1015.5 hPa North 11.1 km/h 6 km/h 71 % 0 mm
23:34 19 °C 13.8 °C 1015.5 hPa South 13 km/h 9.2 km/h 72 % 0 mm
23:39 18.9 °C 13.7 °C 1015.5 hPa South 14.8 km/h 7.7 km/h 72 % 0 mm
23:44 18.8 °C 13.8 °C 1015.5 hPa South 12.9 km/h 6.1 km/h 73 % 0 mm
23:49 18.6 °C 13.9 °C 1015.5 hPa South 9.3 km/h 9.3 km/h 74 % 0 mm
23:54 18.5 °C 13.8 °C 1015.5 hPa South 8 km/h 5.6 km/h 74 % 0 mm
23:59 18.3 °C 13.8 °C 1015.5 hPa South 9.3 km/h 6.1 km/h 75 % 0 mm
Ararat Weather
Compliments of Weather Underground - 2.5 mb
Click here to send mail.


ABOUT

Live weather data from Ararat, Victoria, Australia, 3377
Data uploaded from Cumulus every 5 minutes to Weather Underground.
This site then downloads the raw data for formatting and display.
Metric and imperial data can be displayed. Graphs and historical data available.
Includes Sun and Moon times and rain image live from BOM.

Check out Ararat Weather on Facebook, Twitter and Google +

Help support ongoing costs by checking out the ads





Follow @AraratWeather